This is the latest recevied weather packets stored in our database for station/object vk4zu-13. If no packets are shown the sender has not sent any weather packets the latest 10 day(s).
| Time | Temp. | Humidity | Pressure | Rain* | Wind** | Luminosity | Snow |
|---|---|---|---|---|---|---|---|
| 1778021390 | 23.33° C | 80% | 1018.4 hPa | 0 mm | - | 220 W/m² | - |
| 1778021331 | 23.33° C | 82% | 1018.3 hPa | 0 mm | - | 179 W/m² | - |
| 1778021262 | 23.33° C | 83% | 1018.3 hPa | 0 mm | - | 77 W/m² | - |
| 1778021190 | 22.78° C | 82% | 1018.2 hPa | 0 mm | - | 69 W/m² | - |
| 1778021121 | 22.78° C | 81% | 1018.4 hPa | 0 mm | - | 86 W/m² | - |
| 1778021051 | 22.78° C | 84% | 1018.4 hPa | 0 mm | - | 81 W/m² | - |
| 1778020981 | 22.78° C | 84% | 1018.3 hPa | 0 mm | - | 86 W/m² | - |
| 1778020911 | 22.78° C | 83% | 1018.4 hPa | 0 mm | - | 107 W/m² | - |
| 1778020845 | 22.78° C | 83% | 1018.4 hPa | 0 mm | - | 130 W/m² | - |
| 1778020771 | 22.78° C | 84% | 1018.4 hPa | 0 mm | - | 97 W/m² | - |
| 1778020708 | 22.78° C | 84% | 1018.4 hPa | 0 mm | - | 86 W/m² | - |
| 1778020645 | 22.78° C | 85% | 1018.4 hPa | 0 mm | - | 79 W/m² | - |
| 1778020585 | 22.78° C | 86% | 1018.3 hPa | 0 mm | - | 65 W/m² | - |
| 1778020524 | 22.78° C | 84% | 1018.3 hPa | 0 mm | - | 65 W/m² | - |
| 1778020467 | 22.78° C | 86% | 1018.4 hPa | 0 mm | - | 352 W/m² | - |
| 1778020394 | 22.22° C | 86% | 1018.4 hPa | 0 mm | - | 369 W/m² | - |
| 1778020322 | 22.22° C | 85% | 1018.5 hPa | 0 mm | - | 367 W/m² | - |
| 1778020253 | 22.22° C | 84% | 1018.4 hPa | 0 mm | - | 366 W/m² | - |
| 1778020183 | 22.22° C | 85% | 1018.4 hPa | 0 mm | - | 362 W/m² | - |
| 1778020113 | 22.22° C | 85% | 1018.4 hPa | 0 mm | - | 359 W/m² | - |
| 1778020046 | 22.22° C | 86% | 1018.4 hPa | 0 mm | - | 355 W/m² | - |
| 1778020022 | 21.67° C | 86% | 1018.4 hPa | 0 mm | - | 350 W/m² | - |
| 1778019909 | 21.67° C | 86% | 1018.4 hPa | 0 mm | - | 350 W/m² | - |
| 1778019845 | 21.67° C | 87% | 1018.4 hPa | 0 mm | - | 345 W/m² | - |
| 1778019784 | 21.67° C | 87% | 1018.3 hPa | 0 mm | - | 341 W/m² | - |
* Rain latest hour (hover to see other rain measurements)
** Current wind speed in m/s (hover to see current wind gust speed)